This is the latest recevied weather packets stored in our database for station/object KF0DL. If no packets are shown the sender has not sent any weather packets the latest 10 day(s).
| Time | Temp. | Humidity | Pressure | Rain* | Wind** | Luminosity | Snow |
|---|---|---|---|---|---|---|---|
| 1777566814 | 7.78° C | 39% | 1023.5 hPa | 0 mm | - | - | - |
| 1777566498 | 7.78° C | 43% | 1023.6 hPa | 0 mm | - | - | - |
| 1777566209 | 7.22° C | 43% | 1023.6 hPa | 0 mm | - | - | - |
| 1777565899 | 7.22° C | 45% | 1023.6 hPa | 0 mm | - | - | - |
| 1777565607 | 6.67° C | 46% | 1023.6 hPa | 0 mm | - | - | - |
| 1777565314 | 6.67° C | 46% | 1024.3 hPa | 0 mm | - | - | - |
| 1777565002 | 6.67° C | 46% | 1024.3 hPa | 0 mm | - | - | - |
| 1777564710 | 6.67° C | 48% | 1024.3 hPa | 0 mm | - | - | - |
| 1777564417 | 6.67° C | 46% | 1024.3 hPa | 0 mm | - | - | - |
| 1777564105 | 6.67° C | 48% | 1024.3 hPa | 0 mm | - | - | - |
| 1777563813 | 6.67° C | 50% | 1024.3 hPa | 0 mm | - | - | - |
| 1777563502 | 6.67° C | 49% | 1024.3 hPa | 0 mm | - | - | - |
| 1777563209 | 6.67° C | 48% | 1024.3 hPa | 0 mm | - | - | - |
| 1777562914 | 6.67° C | 47% | 1024.3 hPa | 0 mm | - | - | - |
| 1777562603 | 6.67° C | 49% | 1024.4 hPa | 0 mm | - | - | - |
| 1777562309 | 6.67° C | 50% | 1024.4 hPa | 0 mm | - | - | - |
| 1777562014 | 6.67° C | 52% | 1024.4 hPa | 0 mm | - | - | - |
| 1777561700 | 6.11° C | 52% | 1024.2 hPa | 0 mm | - | - | - |
| 1777561408 | 6.11° C | 52% | 1024.2 hPa | 0 mm | - | - | - |
| 1777561115 | 6.11° C | 51% | 1024.2 hPa | 0 mm | - | - | - |
| 1777560802 | 6.11° C | 48% | 1023.4 hPa | 0 mm | - | - | - |
| 1777560513 | 5.56° C | 47% | 1023.4 hPa | 0 mm | - | - | - |
| 1777560201 | 5.56° C | 46% | 1023.5 hPa | 0 mm | - | - | - |
| 1777559906 | 5.56° C | 46% | 1023.5 hPa | 0 mm | - | - | - |
| 1777559614 | 5° C | 46% | 1023.5 hPa | 0 mm | - | - | - |
* Rain latest hour (hover to see other rain measurements)
** Current wind speed in m/s (hover to see current wind gust speed)